User: anonymous   Login
Location: Unspecified
(0.0000°N, 0.0000°E)
Time: 15:57:14
(UTC+01:00)
Language:

Resurs 1-3 - Orbit

View from above orbital plane
View from above orbital plane
View from above satellite
View from above satellite

Ground track
Ground track

The orbit data is extracted from the following two-line orbital elements,

1 23342U 94074A   17017.16981227  .00000025  00000-0  10560-4 0  9993
2 23342  98.0978  54.5197 0000934 117.7498 242.3808 14.79235040195457
Epoch (UTC): 17 January 2017 04:04:31
Eccentricity: 0.0000934
inclination: 98.0978°
perigee height: 631 km
apogee height: 632 km
right ascension of ascending node: 54.5197°
argument of perigee: 117.7498°
revolutions per day: 14.79235040
mean anomaly at epoch: 242.3808°
orbit number at epoch: 19545

The dashed part of the orbit path shows where the satellite is in the earth's shadow,  

DLR